sat.trackr.live / text

‹ back to catalog

STARLINK-2100

NORAD 47380 · 2021-005AH

PAYLOAD ACTIVE UNKNOWN

§ Identity

Operator
Country
US
Launch date
2021-01-20
Launch site
AFETR
Launch vehicle
Mass (kg)
RCS (m²)

Purposes: comms

External: N2YO · Heavens-Above · Gunter

§ Orbital elements

Epoch: 2026-08-08T20:02:45.632832Z

Period
87.74 min
Inclination
53.0300°
Eccentricity
0.0011173
Mean motion
16.41181916 rev/d
Perigee alt
155.4 km
Apogee alt
170.0 km
Semi-major
6,540.8 km
B*
4.5330e-4
RAAN
0.1212°
Arg perigee
297.5122°
Mean anomaly
62.4789°
Rev number
30,735

§ Raw data

STARLINK-21001 47380U 21005AH  26220.83525038  .07575250  12474-4  45330-3 0  99972 47380  53.0300   0.1212 0011173 297.5122  62.4789 16.41181916307354

JSON: /api/v1/satellites/47380 · /tle

For live sub-satellite position, see the globe view (requires WebGL).

§ Visibility from observer

Set your observer location to see the next 7 days of passes ≥ 10°. The values pass through the URL so the page stays shareable.

No JS? Fill the form by hand. The geolocation button needs JavaScript.